Location: Pedimozza
(42.0500°N, 9.3500°E)
Time: 01:27:36
(UTC+00:00)

Cosmos 923 Rocket - Pass Details

Date: 19 August 2019
Orbit: 759 x 785 km, 74.0° (Epoch: 17 October)

Event Time Altitude Azimuth Distance (km) Brightness Sun altitude
Rises 19:39:05 0° 344° (NNW) 3,284 8.1 -14.5°
Reaches altitude 10° 19:41:33 10° 350° (N) 2,350 7.1 -14.9°
Maximum altitude 19:46:46 51° 66° (ENE) 976 4.3 -15.7°
Enters shadow 19:49:32 26° 130° (SE) 1,497 4.9 -16.1°
